www.pogodaiklimat.ru

Погода и климат >> Архив погоды >> Россия >> Ненецкий АО >> Мыс Микулкин


ПОГОДА на Мысе Микулкин

  • Прогноз погоды на Мысе Микулкин
  • Монитор погоды на Мысе Микулкин
  • Климат города

АРХИВ ПОГОДЫ на Мысе Микулкин

Время (UTC), дата Ветер
(напр.,м/с)
 
Видим.   Явления Облачность Т
(С)
Тd
(С)
f
(%)
Тe
(С)
Тes
(С)
Комфортность P
(гПа)
Po
(гПа)
Тmin
(С)
Tmax
(С)
R
(мм)
R24
(мм)
S
(см)
18 9.08 ЮВ 2 н/о н/о +8.5 +6.3 86 +7 +7 1022.1 1021.3
21 9.08 В 1 н/о н/о +6.4 +5.5 94 +5 +5 1021.8 1021.0
00 10.08 В 3 н/о н/о +4.4 +4.0 97 +1 +1 1021.4 1020.6
03 10.08 В 2 н/о н/о +7.9 +7.6 98 +6 +6 1021.0 1020.2
06 10.08 Ю 2 н/о н/о +10.0 +7.8 86 +8 +8 1020.3 1019.5
09 10.08 ЮЗ 2 н/о н/о +11.4 +7.5 77 +10 +10 1019.6 1018.9
12 10.08 ЮВ 3 н/о н/о +11.6 +6.5 71 +10 +10 1018.8 1018.1
15 10.08 ЮВ 3 н/о н/о +9.8 +4.6 70 +8 +8 1017.4 1016.7
18 10.08 В 4 н/о н/о +8.8 +5.2 78 +6 +6 1015.6 1014.9
21 10.08 В 3 н/о н/о +8.7 +6.5 86 +6 +6 1013.9 1013.2
00 11.08 В 4 н/о н/о +8.0 +7.1 94 +5 +5 1012.2 1011.5
03 11.08 В 5 н/о н/о +8.8 +8.0 95 +5 +5 1010.0 1009.3
06 11.08 ЮВ 8 н/о н/о +9.6 +8.0 90 +5 +5 1008.4 1007.7
09 11.08 В 8 н/о н/о +10.5 +8.1 85 +7 +7 1007.6 1006.9
12 11.08 В 8 н/о н/о +9.9 +7.5 85 +6 +6 1006.9 1006.2
15 11.08 В 7 н/о н/о +9.5 +7.4 87 +6 +6 1006.7 1006.0
18 11.08 В 7 н/о н/о +9.4 +7.5 88 +5 +5 1007.3 1006.6
21 11.08 ЮВ 6 н/о н/о +8.4 +7.0 91 +4 +4 1007.7 1007.0
00 12.08 ЮВ 5 н/о н/о +7.6 +6.5 93 +4 +4 1008.5 1007.7
03 12.08 ЮВ 4 н/о н/о +7.5 +6.1 91 +4 +4 1008.9 1008.2
06 12.08 ЮВ 4 н/о н/о +8.0 +6.1 88 +5 +5 1009.1 1008.4
09 12.08 ЮВ 2 н/о н/о +10.2 +7.4 83 +9 +9 1009.2 1008.5
12 12.08 Ю 2 н/о н/о +10.1 +8.5 90 +9 +9 1009.1 1008.4
15 12.08 Ю 3 н/о н/о +10.2 +9.1 93 +8 +8 1008.5 1007.8
18 12.08 З 4 н/о н/о +10.2 +9.9 98 +7 +7 1008.1 1007.3
21 12.08 ЮЗ 3 н/о н/о +10.7 +9.6 93 +9 +9 1007.4 1006.6
00 13.08 З 4 н/о н/о +11.2 +10.7 97 +9 +9 1006.5 1005.7
03 13.08 ЮЗ 3 н/о н/о +10.4 +9.9 97 +8 +8 1006.3 1005.6
06 13.08 З 4 н/о н/о +11.3 +10.4 94 +9 +9 1005.9 1005.1
09 13.08 ЮЗ 2 н/о н/о +12.2 +11.1 93 +11 +11 1005.5 1004.8
12 13.08 ЮЗ 3 н/о н/о +11.5 +11.0 97 +10 +10 1005.0 1004.3
15 13.08 ЮЗ 7 н/о н/о +12.0 +11.7 98 +9 +9 1002.9 1002.1
18 13.08 З 5
{13}
н/о н/о +11.8 +11.3 97 +9 +9 1000.9 1000.2
21 13.08 З 8
{14}
н/о н/о +12.9 +12.3 96 +10 +10 1000.4 999.7
00 14.08 З 3 н/о н/о +11.7 +11.2 97 +10 +10 1000.6 999.9
03 14.08 ЮЗ 7 н/о н/о +11.3 +11.1 99 +8 +8 1000.1 999.3
06 14.08 З 9
{13}
н/о н/о +11.8 +11.0 95 +8 +8 1000.6 999.9
09 14.08 З 9
{13}
н/о н/о +12.9 +11.5 91 +10 +10 1002.6 1001.8
12 14.08 З 5 н/о н/о +13.1 +11.3 89 +11 +11 1004.9 1004.2
15 14.08 З 3 н/о н/о +11.4 +10.3 93 +9 +9 1006.6 1005.9
18 14.08 З 3 н/о н/о +9.0 +8.2 95 +6 +6 1008.4 1007.7
21 14.08 СЗ 3 н/о н/о +5.6 +5.2 97 +2 +2 1009.2 1008.5
00 15.08 З 4 н/о н/о +9.4 +8.0 91 +6 +6 1009.9 1009.2
03 15.08 СЗ 3 н/о н/о +9.7 +8.6 93 +7 +7 1010.6 1009.9
06 15.08 З 4 н/о н/о +10.4 +8.8 90 +8 +8 1012.0 1011.3
09 15.08 З 7 н/о н/о +12.1 +10.0 87 +9 +9 1013.0 1012.3
12 15.08 З 5 н/о н/о +13.0 +10.4 84 +11 +11 1014.2 1013.5
15 15.08 СЗ 6 н/о н/о +14.7 +6.5 58 +13 +13 1015.7 1014.9
18 15.08 СЗ 3 н/о н/о +7.5 +5.8 89 +5 +5 1017.7 1016.9
21 15.08 СЗ 4 н/о н/о +7.6 +6.1 90 +4 +4 1018.3 1017.6
00 16.08 З 4 н/о н/о +7.9 +6.7 92 +4 +4 1018.3 1017.6
03 16.08 З 2 н/о н/о +8.6 +7.5 93 +7 +7 1018.1 1017.4
06 16.08 З 3 н/о н/о +10.4 +9.0 91 +8 +8 1018.4 1017.6
09 16.08 СЗ 5 н/о н/о +13.9 +6.3 60 +12 +12 1019.9 1019.2
12 16.08 Ю 3 н/о н/о +11.2 +7.3 77 +9 +9 1021.3 1020.5
15 16.08 СЗ 5 н/о н/о +12.9 +5.6 61 +11 +11 1022.2 1021.5

 

Местоположение метеостанции Мыс Микулкин (Ненецкий АО, Россия): широта 67.80 долгота 46.66 высота над уровнем моря 6 м.

В архиве по умолчанию представлена погода на Мысе Микулкин за последнюю неделю. Архивные данные за месяц целиком и за предыдущие месяцы, начиная с января 2011 года, Вы можете получить, выбрав интересующий диапазон дат из раскрывающегося списка и нажав кнопку "Ввод!".

Внимание! Время в таблицах - всемирное. Для получения местного времени необходимо прибавить поправку, которая на Мысе Микулкин равна 3 ч.

Смотрите также архив погоды в соседних городах и на ближайших метеорологических станциях:

Погода в Индиге (Ненецкий АО, Россия) (86 км)
Погода в Шойне (Ненецкий АО, Россия) (105 км)
Погода в Нижней Пеше (Ненецкий АО, Россия) (126 км)
Погода в Бугрино (Ненецкий АО, Россия) (156 км)
Погода в Неси (Ненецкий АО, Россия) (158 км)
Погода в Канином Носе (Ненецкий АО, Россия) (168 км)
Погода в Сенгейском Шаре (Ненецкий АО, Россия) (205 км)
Погода в Коткино (Ненецкий АО, Россия) (209 км)
Погода на Колгуевом Острове (Ненецкий АО, Россия) (216 км)
Погода на Моржовец Острове (Архангельская область, Россия) (216 км)

Пояснения к столбцам:

Ветер - указаны скорость ветра в м/с - средняя за 10 мин, порывы в срок и между сроками (в фигурных скобках) и направление, откуда дует ветер: С - северный, СВ - северо-восточный, В - восточный, ЮВ - юго-восточный, Ю - южный, ЮЗ - юго-западный, З - западный, СЗ - северо-западный.
Видимость - горизонтальная дальность видимости в метрах или километрах. При видимости от 1 до 10 км при отсутствии осадков обычно наблюдается дымка, при ухудшении видимости до 1 км и менее - туман. В сухую погоду видимость может ухудшаться дымом, пылью или мглою.
Явления - указаны атмосферные явления, наблюдавшиеся в срок или в последний час перед сроком; фигурными скобками обозначены явления, наблюдавшиеся между сроками (за 1-3 часа до срока); квадратными скобками обозначены град или гололедные отложения с указанием их диаметра в мм.
Облачность - указаны через наклонную черту общая и нижняя облачность в баллах и высота нижней границы облаков в метрах; квадратными скобками обозначены формы облаков: Ci - перистые, Cs - перисто-слоистые, Cc - перисто-кучевые, Ac - высококучевые, As - высокослоистые, Sc - слоисто-кучевые, Ns - слоисто-дождевые, Cu - кучевые, Cb - кучево-дождевые. Подробнее классификацию облаков см. в Атласе облаков (PDF).
T - Температура воздуха - температура, измеренная на высоте 2 м над землей.
Td - Температура точки росы - температура, при понижении до которой содержащийся в воздухе водяной пар достигнет насыщения.
f - Относительная влажность воздуха - влажноcть воздуха, измеренная на высоте 2 м над землей.
Te - Эффективная температура - температура, которую ощущает одетый по сезону человек в тени. Характеристика душности погоды. При расчете учитывается влияние влажности воздуха и скорости ветра на теплоощущения человека.
Tes - Эффективная температура на солнце - температура, которую ощущает человек, с поправкой на солнечный нагрев. Характеристика знойности погоды. Зависит от высоты солнца над горизонтом, облачности и скорости ветра. Ночью, в пасмурную погоду, а также при ветре 12 м/с и более поправка равна нулю.
P - Атмосферное давление - приведенное к уровню моря атмосферное давление.
Po - Атмосферное давление - измеренное на уровне метеостанции атмосферное давление.
Tmin - Минимальная температура - минимум температуры воздуха на высоте 2 м над землей.
Tmax - Максимальная температура - максимум температуры воздуха на высоте 2 м над землей.
R - Количество осадков - Количество выпавших осадков за период времени, мм. При наведении курсора мыши на число - период времени, за который выпало указанное количество осадков.
R24 - Количество осадков - Количество выпавших осадков за 24 часа, мм.
S - Снежный покров - Высота снежного покрова, см. При наведении курсора мыши на число - состояние снежного покрова и степень покрытия местности в баллах.